QPF
0.00 0.00 0.00 0.00 0.00 0.00 0.00 0.00 0.00 0.00 0.00 0.00 0.00 0.00 0.00 0.00 0.00 0.00 0.00 0.00 0.00 0.00 0.00 0.00 0.00 0.00 0.00 0.00 0.00 0.00 0.00 0.00
0.00 0.00 0.00 0.00 0.00 0.00 0.00 0.00 0.00 0.00 0.00 0.00 0.00 0.00 0.00 0.00 0.00 0.00 0.00 0.00 0.00 0.00 0.00 0.00 0.00 0.00 0.00 0.00 0.00 0.00 0.00 0.00
0.00 0.00 0.00 0.00 0.00 0.00 0.00 0.00 0.00 0.00 0.00 0.00 0.00 0.00 0.00 0.00 0.00 0.00 0.00 0.00 0.00 0.00 0.00 0.00 0.00 0.00 0.00 0.00 0.00 0.00 0.00 0.00
0.00 0.00 0.00 0.00 0.00 0.00 0.00 0.00 0.00 0.00 0.00 0.00 0.00 0.00 0.00 0.00 0.00 0.00 0.00 0.00 0.00 0.00 0.00 0.00 0.00 0.00 0.00 0.00 0.00 0.00 0.00 0.00
0.00 0.00 0.00 0.00 0.00 0.00 0.00 0.00 0.00 0.00 0.00 0.00 0.00 0.00 0.00 0.00 0.00 0.00 0.00 0.00 0.00 0.00 0.00 0.00 0.00 0.00 0.00 0.00 0.00 0.00 0.00 0.00
0.00 0.00 0.00 0.00 0.00 0.00 0.00 0.00 0.00 0.00 0.00 0.00 0.00 0.00 0.00 0.00 0.00 0.00 0.00 0.00 0.00 0.00 0.00 0.00 0.00 0.00 0.00 0.00 0.00 0.00 0.00 0.00
0.00 0.00 0.00 0.00 0.00 0.00 0.00 0.00 0.00 0.00 0.00 0.00 0.00 0.00 0.00 0.00 0.00 0.00 0.00 0.00 0.00 0.00 0.00 0.00 0.00 0.00 0.00 0.00 0.00 0.00 0.00 0.00
0.00 0.00 0.00 0.00 0.00 0.00 0.00 0.00 0.00 0.00 0.00 0.00 0.00 0.00 0.00 0.00 0.00 0.00 0.00 0.00 0.00 0.00 0.00 0.00 0.00 0.00 0.00 0.00 0.00 0.00 0.00 0.00
0.00 0.00 0.00 0.00 0.00 0.00 0.00 0.00 0.00 0.00 0.00 0.00 0.00 0.00 0.00 0.00 0.00 0.00 0.00 0.00 0.00 0.00 0.00 0.00 0.00 0.00 0.00 0.00 0.00 0.00 0.00 0.00
0.00 0.00 0.00 0.00 0.00 0.00 0.00 0.00 0.00 0.00 0.00 0.00 0.00 0.00 0.00 0.00 0.00 0.00 0.00 0.00 0.00 0.00 0.00 0.00 0.00 0.00 0.00 0.00 0.00 0.00 0.00 0.00
0.00 0.00 0.00 0.00 0.00 0.00 0.00 0.00 0.00 0.00 0.00 0.00 0.00 0.00 0.00 0.00 0.00 0.00 0.00 0.00 0.00 0.00 0.00 0.00 0.00 0.00 0.00 0.00 0.00 0.00 0.00 0.00
0.00 0.00 0.00 0.00 0.00 0.00 0.00 0.00 0.00 0.00 0.00 0.00 0.00 0.00 0.00 0.00 0.00 0.00 0.00 0.00 0.00 0.00 0.00 0.00 0.00 0.00 0.00 0.00 0.00 0.00 0.00 0.00
0.00 0.00 0.00 0.00 0.00 0.00 0.00 0.00 0.00 0.00 0.00 0.00 0.00 0.00 0.00 0.00 0.00 0.00 0.00 0.00 0.00 0.00 0.00 0.00 0.00 0.00 0.00 0.00 0.00 0.00 0.00 0.01
0.03 0.01 0.00 0.00 0.00 0.00 0.00 0.00 0.00 0.00 0.00 0.00 0.00 0.00 0.00 0.00 0.00 0.00 0.00 0.00 0.00 0.00 0.00 0.00 0.00 0.00 0.00 0.00 0.00 0.00 0.00 0.01
0.00 0.00 0.00 0.00 0.00 0.00 0.00 0.00 0.00 0.00 0.00 0.00 0.00 0.00 0.00 0.00 0.00 0.00 0.00 0.00 0.00 0.00 0.00 0.00 0.00 0.00 0.00 0.00 0.00 0.00 0.00 0.00
0.01 0.02 0.01 0.00 0.00 0.00 0.00 0.00 0.00 0.00 0.00 0.00 0.00 0.00 0.00 0.00 0.00 0.00 0.00 0.00 0.00 0.00 0.00 0.00 0.00 0.00 0.00 0.00 0.00 0.01 0.01 0.00
0.00 0.00 0.01 0.01 0.02 0.02 0.03 0.02 0.01 0.01 0.00 0.00 0.00 0.00 0.00 0.00 0.00 0.00 0.00 0.00 0.00 0.00 0.00 0.00 0.00 0.00 0.00 0.01 0.02 0.01 0.00 0.00
0.00 0.01 0.01 0.01 0.01 0.02 0.03 0.03 0.01 0.01 0.01 0.01 0.01 0.00 0.00 0.00 0.00 0.00 0.00 0.00 0.00 0.00 0.00 0.00 0.00 0.00 0.00 0.01 0.00 0.00 0.00 0.00
0.01 0.01 0.01 0.00 0.00 0.00 0.01 0.00 0.00 0.00 0.00 0.00 0.00 0.00 0.00 0.00 0.00 0.00 0.00 0.00 0.00 0.00 0.00 0.00 0.00 0.00 0.00 0.00 0.00 0.00 0.00 0.00
MSLP
998.80 998.73 998.61 999.16 999.13 999.42 999.90 1001.19 1000.74 1000.10 1000.03 999.44 998.67 998.43 998.62 998.92 999.87 1000.42 1001.24 1002.04 1002.79 1004.10 1005.13 1005.86 1006.68 1007.28 1007.95 1008.69 1009.28 1009.96 1010.60 1011.39
997.83 998.28 998.03 997.86 998.44 999.41 999.45 999.21 999.43 999.41 999.20 998.15 997.77 997.48 997.48 998.32 998.55 998.93 999.84 1000.92 1001.87 1002.71 1003.77 1004.67 1005.31 1006.08 1007.05 1007.58 1008.25 1008.93 1009.92 1010.62
997.71 996.66 996.67 997.55 997.68 998.09 998.15 998.42 998.02 998.22 997.37 997.65 997.18 996.74 996.64 996.95 997.36 997.78 998.86 999.78 1000.53 1001.56 1002.70 1003.40 1004.09 1005.12 1005.70 1006.69 1007.43 1008.33 1008.99 1009.57
996.61 996.56 996.45 996.14 996.34 996.82 996.92 997.84 998.15 997.45 996.46 996.42 996.42 996.15 996.20 996.29 996.77 997.63 998.34 999.00 999.96 1000.95 1001.99 1002.88 1003.59 1004.20 1004.88 1005.67 1006.54 1007.06 1007.64 1008.67
996.49 996.45 996.35 995.89 995.74 995.94 996.38 996.58 996.22 996.56 995.83 996.23 996.24 996.46 996.46 996.60 996.63 997.48 998.20 998.99 999.64 1000.60 1001.30 1002.06 1002.79 1003.36 1003.95 1004.52 1005.06 1005.82 1007.02 1007.79
995.41 995.29 995.52 995.48 995.47 995.42 995.68 995.35 995.66 995.30 995.62 995.69 995.71 996.05 995.89 996.19 996.43 997.12 997.96 998.57 999.16 1000.12 1000.58 1001.22 1001.88 1002.57 1003.07 1003.70 1004.55 1005.51 1006.12 1006.85
994.82 994.44 994.62 994.68 994.60 994.75 994.76 994.58 994.50 994.63 994.81 994.60 994.90 995.07 995.22 995.27 996.27 997.15 997.75 998.33 998.86 999.32 999.91 1000.73 1001.64 1002.39 1002.99 1003.61 1004.26 1004.82 1005.49 1006.29
994.92 994.27 993.87 993.48 993.82 993.89 993.92 994.05 994.26 994.08 993.86 994.02 994.08 994.75 995.00 995.22 995.97 996.63 997.12 997.63 998.13 998.62 999.56 1000.27 1001.05 1001.88 1002.72 1003.43 1003.91 1004.65 1005.38 1006.34
995.05 994.26 994.13 993.17 992.79 993.22 993.60 993.66 993.49 993.30 993.21 993.33 993.62 994.27 994.45 994.78 995.20 995.85 996.25 996.66 997.33 997.95 999.00 1000.10 1000.94 1001.69 1002.35 1003.07 1003.85 1004.64 1005.43 1006.22
996.32 995.36 994.09 992.75 992.59 992.60 992.68 993.06 993.40 993.44 993.41 993.35 993.45 994.23 994.97 995.22 995.02 995.74 996.26 996.83 997.84 998.72 999.45 1000.13 1000.67 1001.29 1002.09 1002.98 1003.75 1004.52 1005.31 1006.13
997.73 996.19 994.45 993.34 993.15 993.12 992.92 993.14 994.09 993.90 993.81 993.56 994.60 994.97 995.27 995.51 995.19 995.39 996.08 996.67 997.36 998.18 999.08 999.86 1000.50 1001.26 1002.10 1002.73 1003.22 1004.15 1004.96 1005.81
998.92 998.02 995.56 994.64 994.90 994.66 994.22 993.63 994.40 994.57 994.26 994.40 995.12 995.07 995.33 996.17 995.34 995.66 996.13 996.63 997.29 998.28 999.02 999.70 1000.34 1000.77 1001.36 1002.21 1003.07 1003.90 1004.74 1005.39
999.60 998.92 996.58 996.60 996.09 995.54 994.70 994.10 994.19 994.49 994.40 994.79 995.51 995.83 996.38 996.37 996.32 996.25 997.16 997.63 997.83 998.20 998.94 999.70 1000.32 1000.81 1001.43 1002.22 1002.96 1003.80 1004.47 1005.34
1001.22 999.74 998.14 997.71 996.59 995.83 995.07 995.21 994.77 994.57 994.81 995.81 996.49 996.57 996.99 997.23 997.51 997.13 997.16 998.31 998.54 998.79 999.74 1000.16 1000.41 1000.45 1001.35 1002.18 1002.87 1003.73 1004.85 1005.19
1000.99 1000.56 999.77 999.04 998.55 997.30 996.60 996.39 996.33 994.84 995.81 996.81 997.07 997.70 997.58 998.06 998.42 998.41 998.52 998.44 999.35 999.73 1000.25 1000.64 1000.96 1001.10 1001.53 1002.53 1003.53 1004.22 1004.07 1005.30
1000.31 1001.12 1000.16 999.68 999.28 998.25 997.97 997.78 997.84 997.03 997.15 997.25 997.27 998.21 998.32 998.52 998.99 999.19 999.74 999.50 999.85 1000.46 1000.83 1001.35 1001.87 1002.08 1002.29 1003.14 1003.65 1004.18 1004.50 1005.77
1000.17 1000.54 1000.79 1000.25 1000.18 999.63 999.33 998.93 998.36 998.39 998.58 998.71 998.15 998.89 999.29 999.10 999.63 999.58 999.93 999.85 1000.36 1000.61 1000.89 1001.47 1001.94 1002.47 1002.98 1003.14 1003.61 1003.26 1004.17 1005.21
1000.37 1000.33 1000.37 1000.85 1000.84 1000.34 999.96 999.94 999.78 999.29 999.94 1000.16 999.48 999.57 999.94 999.82 999.90 1000.00 1000.47 1000.92 1000.97 1001.23 1001.58 1001.97 1002.35 1002.61 1002.95 1003.23 1004.00 1004.58 1005.17 1005.52
1001.07 1000.40 1000.72 1002.24 1001.77 1001.40 1000.67 1000.84 1000.68 1000.23 1000.22 1001.05 1000.95 1000.56 999.92 999.98 1000.44 1000.61 1000.55 1000.99 1001.11 1001.38 1001.75 1001.95 1002.37 1002.86 1003.21 1003.73 1004.28 1004.79 1005.17 1005.56
Thickness
5791 5799 5802 5781 5773 5814 5787 5763 5769 5788 5795 5821 5845 5850 5855 5858 5856 5854 5854 5852 5849 5840 5835 5831 5825 5822 5818 5813 5812 5807 5801 5795
5790 5797 5803 5797 5811 5774 5775 5750 5742 5772 5775 5800 5830 5845 5860 5852 5859 5866 5865 5858 5854 5850 5842 5837 5833 5829 5822 5821 5815 5810 5802 5796
5770 5774 5781 5781 5779 5782 5794 5783 5768 5760 5781 5825 5835 5852 5859 5864 5868 5872 5868 5864 5862 5857 5849 5844 5839 5832 5828 5822 5817 5810 5805 5801
5754 5781 5794 5801 5792 5796 5779 5761 5771 5778 5786 5840 5845 5858 5864 5869 5871 5871 5869 5868 5864 5858 5850 5843 5838 5834 5829 5827 5821 5818 5814 5804
5734 5755 5769 5769 5788 5796 5799 5798 5775 5766 5784 5834 5840 5841 5852 5856 5867 5864 5863 5862 5862 5856 5851 5845 5842 5838 5834 5833 5830 5825 5813 5804
5730 5748 5768 5753 5767 5782 5783 5774 5776 5775 5795 5819 5834 5836 5851 5855 5861 5862 5860 5859 5860 5854 5852 5850 5847 5841 5838 5835 5830 5822 5816 5808
5761 5772 5768 5764 5769 5773 5768 5786 5775 5796 5794 5824 5837 5846 5855 5865 5858 5852 5854 5854 5856 5855 5853 5849 5843 5838 5835 5831 5827 5823 5816 5808
5740 5762 5767 5761 5770 5775 5779 5789 5788 5800 5798 5837 5848 5850 5851 5854 5852 5849 5853 5855 5858 5857 5851 5847 5843 5836 5831 5826 5824 5819 5810 5799
5729 5753 5748 5739 5766 5772 5776 5787 5796 5785 5814 5839 5838 5839 5849 5856 5855 5854 5857 5859 5859 5857 5851 5843 5836 5832 5825 5822 5819 5811 5802 5794
5719 5727 5702 5761 5786 5790 5788 5794 5799 5804 5816 5829 5840 5842 5840 5847 5853 5851 5853 5853 5848 5845 5840 5835 5832 5828 5824 5817 5809 5801 5794 5786
5694 5711 5740 5756 5768 5769 5771 5779 5785 5796 5811 5823 5824 5830 5829 5838 5849 5851 5849 5849 5847 5843 5836 5830 5826 5822 5816 5809 5805 5796 5787 5779
5688 5683 5705 5743 5751 5764 5771 5767 5780 5789 5801 5810 5812 5814 5825 5826 5843 5844 5846 5845 5840 5834 5830 5826 5821 5820 5813 5805 5796 5788 5781 5775
5681 5684 5726 5731 5744 5758 5750 5774 5783 5793 5801 5804 5802 5810 5812 5822 5827 5834 5828 5828 5831 5830 5823 5817 5814 5810 5802 5795 5788 5781 5777 5768
5664 5680 5702 5725 5741 5747 5764 5769 5782 5792 5796 5791 5793 5800 5804 5808 5810 5819 5820 5813 5817 5814 5807 5805 5805 5803 5793 5785 5780 5771 5760 5757
5667 5675 5698 5711 5719 5743 5757 5760 5769 5785 5786 5781 5784 5784 5792 5790 5792 5797 5800 5803 5799 5799 5794 5792 5790 5789 5781 5772 5763 5758 5755 5741
5666 5668 5680 5700 5714 5730 5738 5744 5751 5766 5770 5773 5775 5771 5776 5781 5780 5781 5780 5783 5785 5780 5776 5771 5770 5769 5768 5757 5751 5745 5740 5726
5675 5671 5676 5691 5698 5710 5718 5729 5739 5745 5749 5752 5759 5754 5760 5766 5766 5770 5769 5773 5771 5769 5766 5761 5758 5752 5746 5742 5737 5739 5728 5717
5673 5671 5677 5680 5689 5699 5704 5709 5720 5729 5726 5730 5741 5743 5745 5750 5755 5758 5755 5754 5755 5752 5746 5742 5740 5738 5734 5731 5723 5713 5705 5703
5655 5669 5670 5666 5678 5687 5693 5695 5703 5712 5716 5711 5719 5729 5740 5742 5741 5741 5746 5743 5741 5739 5735 5731 5728 5723 5718 5711 5705 5699 5693 5688